period_start,C,m1,H,J0,J1,J2,J3,J4,J5,JA,JB,JC,JD,JJ,JK,JN,#
2017-05-11 00:02:28,0.07,1.75,0.00,24.07,26.95,30.26,14.49,49.32,1025.41,2030.00,2814.60,2633.80,3009.55,599.84,598.80,35.40,0000 0000 0000 0000 000000
2017-05-11 00:07:29,0.06,1.75,0.00,24.20,26.95,30.30,14.47,49.37,1025.41,2030.00,2813.33,2632.97,3008.50,599.73,598.47,35.45,0000 0000 0000 0000 000000
2017-05-11 00:12:30,0.07,1.76,0.00,24.23,26.95,30.33,14.60,49.36,1025.41,2030.00,2811.99,2632.10,3007.60,600.34,599.01,35.50,0000 0000 0000 0000 000000
2017-05-11 00:17:31,0.08,1.76,0.00,24.26,26.97,30.32,14.49,49.21,1025.42,2030.00,2810.61,2631.10,3006.53,599.93,598.58,35.55,0000 0000 0000 0000 000000
2017-05-11 00:22:33,0.07,1.76,0.00,24.29,26.97,30.33,14.65,49.38,1025.43,2030.00,2809.27,2630.15,3005.54,600.09,598.60,35.60,0000 0000 0000 0000 000000
2017-05-11 00:27:34,0.07,1.77,0.00,24.31,26.98,30.31,14.60,49.38,1025.42,2029.99,2807.98,2629.20,3004.43,599.99,598.52,35.65,0000 0000 0000 0000 000000
2017-05-11 00:32:36,0.07,1.77,0.00,24.32,27.00,30.33,14.46,49.34,1025.41,2029.99,2806.72,2628.44,3003.50,599.89,598.49,35.70,0000 0000 0000 0000 000000
2017-05-11 00:37:37,0.06,1.77,0.00,24.34,27.00,30.36,14.62,49.38,1025.47,2029.97,2805.48,2627.54,3002.52,600.22,598.74,35.75,0000 0000 0000 0000 000000
2017-05-11 00:42:38,0.06,1.78,0.00,24.36,27.00,30.37,14.36,49.36,1025.74,2029.98,2804.35,2626.76,3001.57,599.49,598.19,35.80,0000 0000 0000 0000 000000
2017-05-11 00:47:39,0.06,1.78,0.00,24.38,27.02,30.37,14.50,49.37,1025.85,2029.97,2803.12,2625.86,3000.56,600.05,598.66,35.85,0000 0000 0000 0000 000000
2017-05-11 00:52:41,0.05,1.78,0.00,24.39,27.02,30.37,14.63,49.46,1025.84,2029.97,2801.91,2625.00,2999.72,600.14,598.78,35.90,0000 0000 0000 0000 000000
2017-05-11 00:57:42,0.08,1.79,0.00,24.33,27.02,30.36,14.57,49.44,1025.87,2029.96,2800.66,2624.11,2998.63,599.89,598.63,35.95,0000 0000 0000 0000 000000
2017-05-11 01:02:43,0.08,1.79,0.00,24.38,27.04,30.33,14.49,49.54,1025.89,2029.96,2799.26,2623.16,2997.53,599.87,598.60,36.01,0000 0000 0000 0000 000000
2017-05-11 01:07:45,0.08,1.80,0.00,24.42,27.05,30.35,14.54,49.48,1025.89,2029.93,2797.72,2622.31,2996.31,599.85,598.57,36.06,0000 0000 0000 0000 000000
2017-05-11 01:12:46,0.07,1.80,0.00,24.39,27.05,30.34,14.56,49.57,1025.89,2029.91,2796.27,2621.24,2995.09,599.82,598.52,36.11,0000 0000 0000 0000 000000
2017-05-11 01:17:47,0.07,1.80,0.00,24.43,27.07,30.36,14.51,49.48,1025.89,2029.77,2794.74,2620.18,2993.87,599.81,598.51,36.16,0000 0000 0000 0000 000000
2017-05-11 01:22:48,0.08,1.81,0.00,24.42,27.07,30.37,14.62,49.63,1025.89,2029.73,2793.41,2619.20,2992.77,600.18,598.84,36.21,0000 0000 0000 0000 000000
2017-05-11 01:27:50,0.07,1.81,0.00,24.42,27.08,30.34,14.46,49.52,1025.89,2029.83,2792.14,2618.35,2991.82,600.00,598.58,36.26,0000 0000 0000 0000 000000
2017-05-11 01:32:51,0.05,1.82,0.00,24.40,27.10,30.32,14.43,49.37,1025.89,2029.59,2790.76,2617.48,2990.71,599.72,598.36,36.31,0000 0000 0000 0000 000000
2017-05-11 01:37:52,0.04,1.82,0.00,24.42,27.10,30.31,14.48,49.40,1025.89,2029.27,2789.57,2616.59,2989.67,599.83,598.39,36.36,0000 0000 0000 0000 000000
2017-05-11 01:42:54,0.05,1.82,0.00,24.40,27.11,30.31,14.58,49.42,1025.89,2029.11,2788.32,2615.75,2988.69,600.04,598.69,36.41,0000 0000 0000 0000 000000
2017-05-11 01:47:55,0.06,1.82,0.00,24.35,27.12,30.32,14.54,49.42,1025.89,2029.06,2787.04,2614.91,2987.75,600.17,598.92,36.46,0000 0000 0000 0000 000000
2017-05-11 01:52:57,0.07,1.83,0.00,24.35,27.12,30.32,14.52,49.44,1025.90,2029.05,2785.85,2614.05,2986.76,599.79,598.53,36.51,0000 0000 0000 0000 000000
2017-05-11 01:57:58,0.07,1.83,0.00,24.27,27.15,30.33,14.57,49.43,1025.90,2029.02,2784.68,2613.15,2985.78,600.05,598.91,36.56,0000 0000 0000 0000 000000
2017-05-11 02:02:59,0.07,1.84,0.00,24.28,27.15,30.36,14.56,49.46,1025.90,2029.03,2783.47,2612.34,2984.83,600.05,599.03,36.61,0000 0000 0000 0000 000000
2017-05-11 02:08:00,0.08,1.84,0.00,24.36,27.15,30.37,14.54,49.48,1025.96,2029.03,2781.93,2611.36,2983.73,599.74,598.56,36.66,0000 0000 0000 0000 000000
2017-05-11 02:13:02,0.08,1.84,0.00,24.34,27.17,30.36,14.57,49.56,1026.05,2029.01,2780.49,2610.36,2982.49,599.97,598.82,36.71,0000 0000 0000 0000 000000
2017-05-11 02:18:03,0.08,1.85,0.00,24.26,27.17,30.38,14.56,49.53,1026.19,2029.00,2778.83,2609.21,2981.23,600.20,599.30,36.76,0000 0000 0000 0000 000000
2017-05-11 02:23:04,0.08,1.85,0.00,24.33,27.17,30.37,14.70,49.58,1026.33,2029.00,2777.40,2608.16,2980.01,600.17,599.12,36.81,0000 0000 0000 0000 000000
2017-05-11 02:28:05,0.09,1.86,0.00,24.29,27.18,30.39,14.53,49.63,1026.36,2029.00,2775.85,2607.14,2978.80,600.40,599.56,36.87,0000 0000 0000 0000 000000
2017-05-11 02:33:07,0.08,1.86,0.00,24.23,27.19,30.36,14.62,49.71,1026.36,2029.00,2774.38,2606.13,2977.66,600.11,599.30,36.92,0000 0000 0000 0000 000000
2017-05-11 02:38:08,0.08,1.87,0.00,24.29,27.20,30.39,14.50,49.62,1026.38,2029.00,2772.93,2605.18,2976.56,599.60,598.72,36.97,0000 0000 0000 0000 000000
2017-05-11 02:43:09,0.08,1.87,0.00,24.31,27.20,30.39,14.49,49.57,1026.38,2029.00,2771.60,2604.21,2975.51,599.64,598.57,37.02,0000 0000 0000 0000 000000
2017-05-11 02:48:10,0.07,1.87,0.00,24.29,27.20,30.39,14.57,49.67,1026.38,2029.00,2770.26,2603.28,2974.39,599.94,599.13,37.07,0000 0000 0000 0000 000000
2017-05-11 02:53:12,0.07,1.88,0.00,24.25,27.20,30.40,14.59,49.67,1026.38,2029.00,2768.90,2602.47,2973.47,599.87,599.09,37.12,0000 0000 0000 0000 000000
2017-05-11 02:58:13,0.07,1.88,0.00,24.34,27.20,30.39,14.69,49.72,1026.38,2029.00,2767.62,2601.56,2972.39,600.30,599.36,37.17,0000 0000 0000 0000 000000
2017-05-11 03:03:14,0.06,1.88,0.00,24.18,27.22,30.36,14.59,49.73,1026.40,2029.00,2766.41,2600.78,2971.47,599.75,599.16,37.22,0000 0000 0000 0000 000000
2017-05-11 03:08:15,0.05,1.89,0.00,24.24,27.22,30.36,14.53,49.82,1026.39,2029.00,2765.13,2599.95,2970.52,600.05,599.24,37.27,0000 0000 0000 0000 000000
2017-05-11 03:13:17,0.08,1.89,0.00,24.28,27.22,30.37,14.64,49.81,1026.38,2029.00,2763.93,2599.07,2969.48,600.24,599.40,37.32,0000 0000 0000 0000 000000
2017-05-11 03:18:18,0.06,1.90,0.00,24.20,27.22,30.37,14.61,49.91,1026.40,2029.00,2762.86,2598.18,2968.64,600.26,599.59,37.37,0000 0000 0000 0000 000000
2017-05-11 03:23:19,0.07,1.90,0.00,24.23,27.23,30.33,14.61,49.72,1026.40,2029.00,2761.70,2597.47,2967.73,599.84,599.08,37.42,0000 0000 0000 0000 000000
2017-05-11 03:28:21,0.07,1.90,0.00,24.30,27.25,30.32,14.58,49.68,1026.44,2029.00,2760.51,2596.68,2966.70,600.00,599.18,37.47,0000 0000 0000 0000 000000
2017-05-11 03:33:22,0.04,1.91,0.00,24.26,27.25,30.32,14.64,49.74,1026.50,2028.99,2759.36,2595.95,2965.88,599.99,599.21,37.52,0000 0000 0000 0000 000000
2017-05-11 03:38:23,0.06,1.91,0.00,24.22,27.25,30.29,14.61,49.73,1026.59,2028.99,2758.24,2595.10,2965.02,600.24,599.64,37.57,0000 0000 0000 0000 000000
2017-05-11 03:43:25,0.07,1.91,0.00,24.24,27.25,30.28,14.51,49.69,1026.46,2028.99,2757.14,2594.32,2964.10,599.76,599.03,37.62,0000 0000 0000 0000 000000
2017-05-11 03:48:26,0.06,1.92,0.00,24.25,27.25,30.30,14.55,49.65,1026.45,2028.98,2756.00,2593.61,2963.22,600.15,599.42,37.67,0000 0000 0000 0000 000000
2017-05-11 03:53:28,0.06,1.92,0.00,24.26,27.25,30.27,14.63,49.64,1026.50,2028.99,2754.80,2592.88,2962.29,600.23,599.42,37.72,0000 0000 0000 0000 000000
2017-05-11 03:58:29,0.06,1.92,0.00,24.27,27.25,30.23,14.57,49.57,1026.71,2028.99,2753.80,2592.05,2961.44,599.90,599.31,37.78,0000 0000 0000 0000 000000
2017-05-11 04:03:30,0.07,1.92,0.00,24.30,27.25,30.21,14.54,49.46,1026.81,2028.98,2752.70,2591.43,2960.65,599.92,599.41,37.83,0000 0000 0000 0000 000000
2017-05-11 04:08:31,0.06,1.93,0.00,24.27,27.24,30.22,14.53,49.34,1026.85,2028.97,2751.59,2590.66,2959.81,599.94,599.40,37.88,0000 0000 0000 0000 000000
2017-05-11 04:13:33,0.05,1.93,0.00,24.29,27.23,30.24,14.51,49.43,1026.87,2028.98,2750.53,2589.92,2958.92,599.87,599.39,37.93,0000 0000 0000 0000 000000
2017-05-11 04:18:34,0.06,1.94,0.00,24.32,27.23,30.22,14.62,49.55,1026.87,2028.99,2749.51,2589.11,2958.03,600.11,599.47,37.98,0000 0000 0000 0000 000000
2017-05-11 04:23:35,0.07,1.94,0.00,24.34,27.22,30.23,14.54,49.56,1026.87,2028.98,2748.27,2588.27,2957.09,599.97,599.33,38.03,0000 0000 0000 0000 000000
2017-05-11 04:28:37,0.06,1.94,0.00,24.37,27.22,30.22,14.59,49.41,1026.87,2028.98,2747.14,2587.68,2956.21,599.96,599.27,38.08,0000 0000 0000 0000 000000
2017-05-11 04:33:38,0.05,1.95,0.00,24.41,27.22,30.23,14.55,49.43,1026.87,2028.98,2746.07,2586.93,2955.46,600.08,599.18,38.13,0000 0000 0000 0000 000000
2017-05-11 04:38:39,0.06,1.95,0.00,24.41,27.23,30.22,14.56,49.52,1026.87,2028.99,2745.00,2586.10,2954.64,599.97,599.22,38.18,0000 0000 0000 0000 000000
2017-05-11 04:43:40,0.06,1.95,0.00,24.43,27.24,30.24,14.58,49.52,1026.87,2028.99,2743.89,2585.31,2953.76,599.78,598.89,38.23,0000 0000 0000 0000 000000
2017-05-11 04:48:41,0.07,1.95,0.00,24.47,27.25,30.24,14.59,49.58,1026.87,2028.98,2742.68,2584.60,2952.82,600.13,599.11,38.28,0000 0000 0000 0000 000000
2017-05-11 04:53:42,0.06,1.96,0.00,24.49,27.25,30.23,14.48,49.41,1026.89,2028.98,2741.38,2583.78,2951.81,599.88,598.94,38.33,0000 0000 0000 0000 000000
2017-05-11 04:58:44,0.10,1.96,0.00,24.49,27.25,30.24,14.56,49.51,1026.96,2028.97,2739.81,2582.65,2950.60,599.97,599.04,38.38,0000 0000 0000 0000 000000
2017-05-11 05:03:45,0.07,1.97,0.00,24.53,27.25,30.25,14.57,49.50,1027.18,2028.97,2738.46,2581.65,2949.51,600.06,599.23,38.43,0000 0000 0000 0000 000000
2017-05-11 05:08:46,0.08,1.97,0.00,24.57,27.27,30.25,14.50,49.44,1027.30,2028.97,2736.91,2580.65,2948.36,599.96,599.13,38.48,0000 0000 0000 0000 000000
2017-05-11 05:13:47,0.07,1.98,0.00,24.56,27.27,30.23,14.50,49.47,1027.36,2028.97,2735.58,2579.76,2947.22,599.80,598.98,38.53,0000 0000 0000 0000 000000
2017-05-11 05:18:48,0.06,1.98,0.00,24.59,27.27,30.23,14.61,49.54,1027.34,2028.93,2734.24,2578.88,2946.25,600.17,599.20,38.58,0000 0000 0000 0000 000000
2017-05-11 05:23:50,0.07,1.98,0.00,24.64,27.30,30.26,14.50,49.45,1027.34,2028.96,2733.12,2578.05,2945.34,600.03,598.99,38.63,0000 0000 0000 0000 000000
2017-05-11 05:28:51,0.06,1.99,0.00,24.62,27.30,30.26,14.56,49.49,1027.35,2028.90,2732.13,2577.32,2944.58,600.44,599.48,38.69,0000 0000 0000 0000 000000
2017-05-11 05:33:52,0.05,1.99,0.00,24.65,27.31,30.27,14.49,49.41,1027.36,2028.82,2731.02,2576.64,2943.85,599.82,598.79,38.74,0000 0000 0000 0000 000000
2017-05-11 05:38:54,0.05,1.99,0.00,24.67,27.32,30.28,14.57,49.39,1027.36,2028.76,2730.01,2575.97,2943.03,599.81,598.72,38.79,0000 0000 0000 0000 000000
2017-05-11 05:43:55,0.06,2.00,0.00,24.66,27.33,30.31,14.55,49.44,1027.36,2028.70,2729.01,2575.18,2942.20,599.95,598.84,38.84,0000 0000 0000 0000 000000
2017-05-11 05:48:56,0.03,2.00,0.00,24.68,27.35,30.32,14.51,49.46,1027.36,2028.45,2727.99,2574.55,2941.37,599.67,598.60,38.89,0000 0000 0000 0000 000000
2017-05-11 05:53:57,0.05,2.00,0.00,24.71,27.35,30.33,14.51,49.56,1027.36,2028.21,2726.92,2573.88,2940.55,599.71,598.50,38.94,0000 0000 0000 0000 000000
2017-05-11 05:58:59,0.05,2.00,0.00,24.73,27.37,30.33,14.59,49.47,1027.36,2028.09,2725.84,2573.06,2939.79,600.30,598.97,38.99,0000 0000 0000 0000 000000
2017-05-11 06:04:00,0.06,2.00,0.00,24.70,27.38,30.35,14.61,49.42,1027.36,2028.06,2724.85,2572.37,2938.96,600.14,598.92,39.04,0000 0000 0000 0000 000000
2017-05-11 06:09:01,0.04,2.01,0.00,24.73,27.40,30.37,14.60,49.50,1027.38,2028.04,2723.98,2571.74,2938.09,600.18,599.06,39.09,0000 0000 0000 0000 000000
2017-05-11 06:14:02,0.05,2.01,0.00,24.72,27.41,30.41,14.52,49.51,1027.49,2028.01,2723.03,2571.02,2937.34,599.80,598.73,39.14,0000 0000 0000 0000 000000
2017-05-11 06:19:04,0.06,2.01,0.00,24.72,27.43,30.41,14.58,49.53,1027.53,2028.00,2722.03,2570.30,2936.60,599.88,598.84,39.19,0000 0000 0000 0000 000000
2017-05-11 06:24:05,0.04,2.02,0.00,24.72,27.45,30.39,14.52,49.55,1027.49,2028.00,2721.05,2569.75,2935.91,600.03,599.10,39.24,0000 0000 0000 0000 000000
2017-05-11 06:29:06,0.05,2.02,0.00,24.72,27.47,30.40,14.56,49.60,1027.55,2028.00,2720.10,2569.02,2935.07,600.09,599.05,39.29,0000 0000 0000 0000 000000
2017-05-11 06:34:07,0.07,2.02,0.00,24.72,27.49,30.41,14.69,49.68,1027.64,2028.00,2719.39,2568.24,2934.19,600.42,599.38,39.34,0000 0000 0000 0000 000000
2017-05-11 06:39:09,0.06,2.02,0.00,24.77,27.51,30.41,14.49,49.63,1027.76,2027.99,2718.35,2567.58,2933.36,599.85,598.90,39.39,0000 0000 0000 0000 000000
2017-05-11 06:44:10,0.04,2.03,0.00,24.76,27.52,30.39,14.58,49.59,1027.83,2027.98,2717.40,2566.99,2932.70,599.99,599.14,39.44,0000 0000 0000 0000 000000
2017-05-11 06:49:11,0.05,2.03,0.00,24.73,27.55,30.38,14.60,49.57,1027.85,2027.94,2716.53,2566.20,2931.91,600.03,599.11,39.49,0000 0000 0000 0000 000000
2017-05-11 06:54:12,0.05,2.03,0.00,24.74,27.56,30.43,14.57,49.69,1027.85,2027.84,2715.61,2565.71,2931.07,600.02,599.17,39.55,0000 0000 0000 0000 000000
2017-05-11 06:59:13,0.03,2.04,0.00,24.74,27.57,30.45,14.61,49.63,1027.85,2027.69,2714.60,2564.95,2930.22,600.19,599.18,39.60,0000 0000 0000 0000 000000
2017-05-11 07:04:15,0.02,2.04,0.00,24.75,27.60,30.44,14.56,49.55,1027.85,2027.32,2713.47,2564.07,2929.32,600.13,599.26,39.65,0000 0000 0000 0000 000000
2017-05-11 07:09:16,0.06,2.04,0.00,24.77,27.60,30.43,14.50,49.58,1027.85,2027.05,2712.27,2563.21,2928.31,600.17,599.20,39.70,0000 0000 0000 0000 000000
2017-05-11 07:14:17,0.06,2.04,0.00,24.78,27.62,30.45,14.55,49.57,1027.85,2027.02,2711.35,2562.53,2927.52,599.99,598.97,39.75,0000 0000 0000 0000 000000
2017-05-11 07:19:19,0.07,2.05,0.00,24.80,27.62,30.46,14.52,49.47,1027.85,2027.00,2710.18,2561.70,2926.47,599.80,598.72,39.80,0000 0000 0000 0000 000000
2017-05-11 07:24:20,0.04,2.05,0.00,24.79,27.63,30.45,14.52,49.38,1027.86,2027.00,2709.18,2561.01,2925.68,600.12,599.29,39.85,0000 0000 0000 0000 000000
2017-05-11 07:29:21,0.06,2.05,0.00,24.80,27.65,30.44,14.55,49.46,1027.87,2027.00,2708.21,2560.27,2924.99,599.84,598.83,39.90,0000 0000 0000 0000 000000
2017-05-11 07:34:22,0.04,2.05,0.00,24.82,27.65,30.48,14.57,49.54,1027.88,2027.00,2707.41,2559.85,2924.15,600.08,599.04,39.95,0000 0000 0000 0000 000000
2017-05-11 07:39:24,0.05,2.06,0.00,24.84,27.66,30.47,14.54,49.54,1027.90,2027.00,2706.62,2559.09,2923.63,600.17,599.09,40.00,0000 0000 0000 0000 000000
2017-05-11 07:44:25,0.03,2.06,0.00,24.86,27.67,30.48,14.57,49.43,1027.97,2027.00,2705.67,2558.90,2922.92,599.90,598.87,40.05,0000 0000 0000 0000 000000
2017-05-11 07:49:26,0.06,2.06,0.00,24.88,27.67,30.54,14.55,49.44,1028.15,2026.99,2704.79,2558.09,2922.07,600.02,599.05,40.10,0000 0000 0000 0000 000000
2017-05-11 07:54:28,0.05,2.06,0.00,24.88,27.68,30.49,14.65,49.44,1028.23,2026.99,2703.99,2557.62,2921.38,600.27,599.17,40.15,0000 0000 0000 0000 000000
2017-05-11 07:59:29,0.03,2.07,0.00,24.91,27.70,30.50,14.60,49.42,1028.16,2026.98,2703.12,2557.01,2920.88,600.28,599.07,40.20,0000 0000 0000 0000 000000
2017-05-11 08:04:30,0.06,2.07,0.00,24.94,27.70,30.49,14.47,49.42,1028.22,2026.97,2702.27,2556.40,2920.06,599.80,598.68,40.25,0000 0000 0000 0000 000000
2017-05-11 08:09:32,0.04,2.07,0.00,24.97,27.70,30.51,14.46,49.48,1028.33,2026.96,2701.39,2555.95,2919.36,599.96,598.95,40.30,0000 0000 0000 0000 000000
2017-05-11 08:14:33,0.05,2.07,0.00,24.97,27.71,30.52,14.55,49.45,1028.33,2026.91,2700.63,2555.13,2918.76,600.07,599.01,40.35,0000 0000 0000 0000 000000
2017-05-11 08:19:35,0.02,2.08,0.00,24.99,27.72,30.48,14.49,49.34,1028.34,2026.82,2699.84,2554.75,2918.04,599.83,598.88,40.40,0000 0000 0000 0000 000000
2017-05-11 08:24:36,0.05,2.08,0.00,25.00,27.72,30.48,14.49,49.41,1028.35,2026.78,2699.04,2554.04,2917.46,600.04,598.95,40.45,0000 0000 0000 0000 000000
2017-05-11 08:29:37,0.02,2.08,0.00,25.01,27.73,30.52,14.53,49.44,1028.35,2026.44,2698.19,2553.63,2916.85,600.08,598.88,40.51,0000 0000 0000 0000 000000
2017-05-11 08:34:39,0.02,2.08,0.00,25.01,27.74,30.56,14.52,49.46,1028.41,2026.19,2697.43,2553.00,2916.05,600.23,598.91,40.56,0000 0000 0000 0000 000000
2017-05-11 08:39:40,0.05,2.08,0.00,25.04,27.75,30.56,14.53,49.53,1028.48,2026.09,2696.64,2552.40,2915.50,599.78,598.57,40.61,0000 0000 0000 0000 000000
2017-05-11 08:44:41,0.02,2.09,0.00,25.06,27.75,30.54,14.50,49.37,1028.55,2026.08,2695.78,2551.99,2914.96,600.16,598.94,40.66,0000 0000 0000 0000 000000
2017-05-11 08:49:43,0.06,2.09,0.00,25.10,27.75,30.57,14.56,49.48,1028.52,2026.13,2694.98,2551.38,2914.19,600.33,599.15,40.71,0000 0000 0000 0000 000000
2017-05-11 08:54:44,0.03,2.09,0.00,25.14,27.75,30.60,14.62,49.40,1028.69,2026.09,2694.10,2550.95,2913.71,600.26,599.02,40.76,0000 0000 0000 0000 000000
2017-05-11 08:59:46,0.05,2.09,0.00,25.17,27.75,30.59,14.53,49.41,1028.74,2026.05,2693.36,2550.14,2913.01,600.21,599.05,40.81,0000 0000 0000 0000 000000
2017-05-11 09:04:47,0.04,2.09,0.00,25.19,27.77,30.61,14.53,49.53,1028.81,2026.02,2692.65,2549.85,2912.26,599.88,598.64,40.86,0000 0000 0000 0000 000000
2017-05-11 09:09:49,0.04,2.10,0.00,25.20,27.77,30.66,14.58,49.42,1028.81,2026.02,2691.84,2549.06,2911.86,600.41,599.16,40.91,0000 0000 0000 0000 000000
2017-05-11 09:14:50,0.05,2.10,0.00,25.23,27.77,30.67,14.55,49.55,1028.82,2026.01,2690.97,2548.67,2911.05,600.20,598.74,40.96,0000 0000 0000 0000 000000
2017-05-11 09:19:51,0.05,2.10,0.00,25.26,27.79,30.68,14.58,49.49,1028.82,2026.00,2690.08,2548.01,2910.20,600.06,598.69,41.01,0000 0000 0000 0000 000000
2017-05-11 09:24:53,0.05,2.10,0.00,25.27,27.80,30.69,14.52,49.49,1028.82,2026.00,2689.43,2547.44,2909.74,599.98,598.53,41.06,0000 0000 0000 0000 000000
2017-05-11 09:29:54,0.04,2.11,0.00,25.30,27.81,30.71,14.48,49.54,1028.84,2026.00,2688.39,2546.95,2909.02,600.17,598.79,41.11,0000 0000 0000 0000 000000
2017-05-11 09:34:55,0.07,2.11,0.00,25.33,27.82,30.73,14.49,49.46,1028.83,2026.00,2687.41,2546.13,2908.20,599.91,598.39,41.16,0000 0000 0000 0000 000000
2017-05-11 09:39:57,0.03,2.11,0.00,25.36,27.84,30.72,14.47,49.48,1028.83,2026.00,2686.85,2545.73,2907.71,599.93,598.35,41.21,0000 0000 0000 0000 000000
2017-05-11 09:44:58,0.04,2.12,0.00,25.37,27.85,30.73,14.43,49.48,1028.84,2025.99,2686.03,2545.03,2906.99,599.86,598.23,41.26,0000 0000 0000 0000 000000
2017-05-11 09:49:59,0.06,2.12,0.00,25.38,27.87,30.75,14.49,49.48,1028.83,2025.98,2685.16,2544.37,2906.12,600.05,598.41,41.31,0000 0000 0000 0000 000000
2017-05-11 09:55:00,0.04,2.12,0.00,25.43,27.90,30.78,14.54,49.47,1028.84,2025.95,2684.24,2543.91,2905.47,600.28,598.60,41.37,0000 0000 0000 0000 000000
2017-05-11 10:00:02,0.03,2.12,0.00,25.45,27.91,30.78,14.48,49.34,1028.84,2025.70,2683.34,2543.08,2904.77,600.08,598.34,41.42,0000 0000 0000 0000 000000
2017-05-11 10:05:03,-0.01,2.12,0.00,25.46,27.93,30.80,14.54,49.48,1028.84,2025.16,2682.88,2542.65,2904.01,600.05,598.32,41.47,0000 0000 0000 0000 000000
2017-05-11 10:10:04,0.06,2.12,0.00,25.48,27.95,30.83,14.46,49.25,1028.84,2025.06,2681.77,2541.99,2903.27,599.90,598.12,41.52,0000 0000 0000 0000 000000
2017-05-11 10:15:05,0.06,2.13,0.00,25.50,27.97,30.88,14.59,49.41,1028.84,2025.01,2680.85,2541.19,2902.50,599.93,598.10,41.57,0000 0000 0000 0000 000000
2017-05-11 10:20:07,0.06,2.13,0.00,25.52,27.98,30.94,14.48,49.38,1028.86,2025.00,2679.87,2540.59,2901.77,599.88,598.08,41.62,0000 0000 0000 0000 000000
2017-05-11 10:25:08,0.06,2.13,0.00,25.54,28.00,31.00,14.46,49.37,1028.98,2025.00,2678.75,2539.86,2900.90,600.07,598.28,41.67,0000 0000 0000 0000 000000
2017-05-11 10:30:10,0.05,2.14,0.00,25.56,28.01,31.07,14.54,49.38,1029.18,2025.00,2677.77,2539.08,2900.07,599.99,598.26,41.72,0000 0000 0000 0000 000000
2017-05-11 10:35:11,0.06,2.14,0.00,25.60,28.03,31.11,14.51,49.35,1029.27,2025.00,2676.92,2538.48,2899.34,600.05,598.25,41.77,0000 0000 0000 0000 000000
2017-05-11 10:40:12,0.03,2.14,0.00,25.64,28.05,31.15,14.46,49.25,1029.28,2024.98,2676.08,2537.99,2898.77,599.83,597.96,41.82,0000 0000 0000 0000 000000
2017-05-11 10:45:14,0.06,2.14,0.00,25.69,28.07,31.18,14.55,49.25,1029.31,2024.95,2675.39,2537.29,2898.03,600.07,598.10,41.87,0000 0000 0000 0000 000000
2017-05-11 10:50:15,0.03,2.15,0.00,25.76,28.07,31.21,14.53,49.23,1029.31,2024.83,2674.38,2536.88,2897.25,600.13,598.09,41.92,0000 0000 0000 0000 000000
2017-05-11 10:55:16,0.02,2.15,0.00,25.82,28.10,31.23,14.49,49.27,1029.32,2024.60,2673.71,2536.08,2896.80,600.01,597.89,41.97,0000 0000 0000 0000 000000
2017-05-11 11:00:17,0.01,2.15,0.00,25.87,28.10,31.26,14.55,49.13,1029.32,2024.39,2672.92,2535.83,2896.04,600.25,597.88,42.02,0000 0000 0000 0000 000000
2017-05-11 11:05:19,0.05,2.15,0.00,25.91,28.12,31.28,14.47,49.14,1029.33,2024.20,2672.03,2535.06,2895.41,599.81,597.52,42.07,0000 0000 0000 0000 000000
2017-05-11 11:10:20,0.03,2.15,0.00,25.94,28.12,31.29,14.52,49.17,1029.34,2024.12,2671.25,2534.69,2894.93,600.03,597.45,42.12,0000 0000 0000 0000 000000
2017-05-11 11:15:21,0.04,2.16,0.00,25.95,28.14,31.30,14.52,49.08,1029.36,2024.03,2670.67,2534.04,2894.11,600.08,597.67,42.17,0000 0000 0000 0000 000000
2017-05-11 11:20:22,0.04,2.16,0.00,25.95,28.15,31.29,14.49,49.08,1029.41,2024.00,2670.00,2533.57,2893.58,599.89,597.50,42.23,0000 0000 0000 0000 000000
2017-05-11 11:25:23,0.03,2.16,0.00,25.95,28.15,31.27,14.53,49.03,1029.36,2024.00,2669.17,2533.02,2892.98,600.16,597.73,42.28,0000 0000 0000 0000 000000
2017-05-11 11:30:25,0.06,2.16,0.00,25.92,28.15,31.23,14.44,48.98,1029.34,2024.00,2668.42,2532.51,2892.27,599.88,597.48,42.33,0000 0000 0000 0000 000000
2017-05-11 11:35:26,0.01,2.16,0.00,25.92,28.15,31.18,14.53,49.04,1029.34,2024.00,2667.82,2532.01,2891.98,600.50,598.16,42.38,0000 0000 0000 0000 000000
2017-05-11 11:40:27,0.05,2.17,0.00,25.91,28.15,31.16,14.43,49.00,1029.34,2024.00,2666.97,2531.69,2891.20,599.88,597.47,42.43,0000 0000 0000 0000 000000
2017-05-11 11:45:29,0.04,2.17,0.00,25.86,28.15,31.17,14.50,49.05,1029.34,2024.00,2666.08,2531.04,2890.91,600.21,597.90,42.48,0000 0000 0000 0000 000000
2017-05-11 11:50:30,0.05,2.17,0.00,25.82,28.15,31.18,14.43,49.09,1029.36,2024.00,2665.21,2530.77,2890.13,600.18,598.02,42.53,0000 0000 0000 0000 000000
2017-05-11 11:55:31,0.02,2.17,0.00,25.75,28.15,31.19,14.49,49.06,1029.50,2024.00,2664.89,2530.07,2889.94,599.82,597.82,42.58,0000 0000 0000 0000 000000
2017-05-11 12:00:32,0.03,2.17,0.00,25.65,28.13,31.19,14.60,49.08,1029.66,2024.00,2664.47,2529.93,2889.17,600.31,598.52,42.63,0000 0000 0000 0000 000000
2017-05-11 12:05:34,0.05,2.18,0.00,25.55,28.12,31.18,14.48,49.09,1029.70,2024.00,2663.08,2529.13,2888.86,599.95,598.45,42.68,0000 0000 0000 0000 000000
2017-05-11 12:10:35,0.01,2.18,0.00,25.45,28.11,31.16,14.59,49.09,1029.75,2024.01,2663.07,2528.99,2888.11,600.22,599.02,42.73,0000 0000 0000 0000 000000
2017-05-11 12:15:37,0.04,2.18,0.00,25.37,28.10,31.17,14.53,49.16,1029.76,2024.00,2662.50,2528.74,2887.89,599.86,598.81,42.78,0000 0000 0000 0000 000000
2017-05-11 12:20:38,0.05,2.18,0.00,25.30,28.09,31.09,14.49,49.19,1029.59,2024.00,2661.57,2528.05,2887.15,599.86,598.87,42.83,0000 0000 0000 0000 000000
2017-05-11 12:25:40,0.02,2.18,0.00,25.24,28.07,31.07,14.47,49.16,1029.46,2024.01,2660.73,2527.97,2886.94,599.92,598.74,42.88,0000 0000 0000 0000 000000
2017-05-11 12:30:41,0.05,2.19,0.00,25.17,28.05,31.05,14.56,49.15,1029.38,2024.06,2660.03,2527.41,2886.28,600.22,599.30,42.93,0000 0000 0000 0000 000000
2017-05-11 12:35:42,0.03,2.19,0.00,25.12,28.03,31.02,14.58,49.20,1029.34,2024.08,2659.45,2527.03,2886.00,600.00,599.22,42.98,0000 0000 0000 0000 000000
2017-05-11 12:40:43,0.09,2.19,0.00,25.08,28.00,30.98,14.59,49.27,1029.33,2024.53,2658.61,2526.72,2885.60,599.86,599.15,43.03,0000 0000 0000 0000 000000
2017-05-11 12:45:44,0.05,2.20,0.00,25.03,27.98,30.99,14.52,49.14,1029.33,2024.87,2658.04,2526.09,2885.02,599.93,599.35,43.08,0000 0000 0000 0000 000000
2017-05-11 12:50:46,0.04,2.20,0.00,24.98,27.96,30.95,14.56,49.19,1029.31,2024.96,2657.07,2525.97,2884.84,599.87,599.30,43.14,0000 0000 0000 0000 000000
2017-05-11 12:55:47,0.02,2.20,0.00,24.93,27.93,30.90,14.51,49.18,1029.31,2024.97,2656.99,2525.65,2884.07,599.76,599.34,43.19,0000 0000 0000 0000 000000